TIME,DELAY(SENSOR),PRES,OXYGEN,RAWTEMP,T(OPTODE),TCPHASE,FLUOR,BETA(BETA700),BETA(BETA412),BETA(BETA440),CDOM,C(CSC),ED(ED411.90),ED(ED443.80),ED(ED489.40),ED(ED554.70),LU(LU412.20),LU(LU443.80),LU(LU489.40),LU(LU555.00),COMP,TILTX,TILTY,CHECK
1376864154,5805,805.0100097656250000,170.8983001708984400,515.2349853515625000,7.0560522079467770,40.1016197204589840,76,1960,50,52,58,10483,2146964178,2147517613,2147295414,2147510838,2147087872,2146922605,2147720594,2147122084,2160,-1,8,8535
1376867750,5805,901.0399780273438000,207.8515930175781200,554.4840698242188000,5.8286128044128420,38.3980407714843750,77,1985,52,51,59,10474,2146965037,2147518098,2147303844,2147517650,2147086409,2146914395,2147726848,2147122633,3279,-1,8,56839
1376871350,5804,918.3800048828125000,195.7098999023437500,557.1890258789062000,5.7435870170593260,39.1894111633300800,78,1994,51,52,57,10326,2146964772,2147519369,2147301330,2147519917,2147085092,2146913910,2147729499,2147122322,2865,-1,8,47444
1376874950,5807,955.6699829101562000,201.9237060546875000,566.8850708007812000,5.4383010864257810,38.9828300476074200,78,2024,51,52,57,10320,2146966253,2147520027,2147304960,2147520246,2147084150,2146918838,2147733211,2147121920,3578,-1,8,19889
1376878550,5807,961.1199951171875000,211.9360046386718800,566.9746704101562000,5.4354758262634280,38.3873710632324200,77,2002,50,52,57,10314,2146963154,2147517385,2147306624,2147520740,2147085869,2146913261,2147731282,2147118089,358,0,8,55436
1376882150,5809,964.3300170898438000,200.1986999511718800,568.0620117187500000,5.4011921882629395,39.1106300354003900,77,2004,51,52,57,10231,2146963867,2147518729,2147299867,2147518582,2147087286,2146914834,2147730752,2147121554,182,-1,8,11651
1376885750,5807,996.6900024414062000,233.9618988037109400,570.1873168945312000,5.3341541290283200,37.2265205383300800,77,2003,51,53,58,10239,2146962898,2147522002,2147303826,2147519021,2147085577,2146914916,2147734473,2147118473,114,-1,8,57218
1376889350,5801,997.2800292968750000,206.7169952392578000,571.2883911132812000,5.2994041442871090,38.7754402160644500,77,2006,52,53,58,10240,2146963885,2147518765,2147302930,2147521097,2147084617,2146919049,2147731739,2147120265,3250,-1,8,57877
1376892950,5805,1002.2999877929688000,219.8094024658203000,570.6757812500000000,5.3187370300292970,38.0056304931640600,77,2006,51,53,58,10236,2146962221,2147522441,2147303387,2147520137,2147083593,2146915209,2147730834,2147117787,3463,-1,8,38845
1376896550,5803,1005.6099853515625000,231.5012054443359400,570.2069702148438000,5.3335289955139160,37.3567008972168000,78,2014,52,52,58,10232,2146964626,2147522048,2147303570,2147520859,2147085174,2146914358,2147731401,2147119552,3100,-1,8,36863
1376900150,5805,1009.1099853515625000,235.8188018798828000,570.2778930664062000,5.3312931060791020,37.1307792663574200,78,2023,50,52,58,10233,2146961252,2147521481,2147306066,2147524342,2147087104,2146911862,2147731657,2147116818,3505,-1,8,36697
1376903750,5805,1015.1400146484375000,251.8993988037109400,570.5764160156250000,5.3218770027160645,36.3234214782714840,78,2028,50,51,59,10221,2146963830,2147521782,2147306752,2147523218,2147086089,2146914240,2147731318,2147120521,3018,-1,8,65399
1376907350,5804,1014.3400268554688000,244.8473052978515600,570.6322021484375000,5.3201122283935550,36.6739997863769500,78,2032,51,52,58,10227,2146965851,2147521270,2147303707,2147521106,2147086372,2146912685,2147734153,2147119094,3218,-1,8,39664
1376910950,5807,1020.1500244140625000,244.7525939941406200,570.4951782226562000,5.3244338035583500,36.6765098571777340,78,2039,51,51,57,10228,2146962386,2147520192,2147306880,2147520740,2147089115,2146910098,2147728768,2147119579,3324,-1,8,44474
1376914550,5805,1019.4899902343750000,250.7901000976562500,569.1591796875000000,5.3665871620178220,36.3513793945312500,78,2043,51,51,58,10224,2146962669,2147520073,2147306157,2147519835,2147086619,2146911963,2147730395,2147121280,3146,-1,8,23182
1376918150,5805,1020.7600097656250000,230.3898925781250000,568.9442749023438000,5.3733649253845215,37.3930015563964840,79,2046,50,52,57,10222,2146964653,2147520914,2147303716,2147517805,2147085924,2146913481,2147731529,2147121892,3515,0,8,63664
1376921750,5804,1022.3400268554688000,234.2973022460937500,569.1060791015625000,5.3682627677917480,37.1885299682617200,77,2048,51,52,57,10208,2146962980,2147524809,2147304420,2147520813,2147084342,2146915629,2147732059,2147121856,3402,-1,8,2754
1376925350,5806,1021.8400268554688000,227.5050964355468800,569.1207275390625000,5.3678002357482910,37.5518112182617200,78,2053,52,52,58,10217,2146965888,2147519606,2147302866,2147518509,2147088969,2146919030,2147729280,2147124260,3221,-1,8,18887
1376928950,5803,1023.2800292968750000,250.4058990478515600,569.2164916992188000,5.3647799491882320,36.3713493347168000,78,2055,52,52,58,10220,2146962057,2147520576,2147304237,2147518774,2147087542,2146914048,2147732928,2147121280,2972,-1,8,56301
1376932550,5804,1024.5100097656250000,233.4470062255859400,569.1467285156250000,5.3669829368591310,37.2337913513183600,78,2060,51,52,58,10220,2146961472,2147518098,2147302948,2147522322,2147089508,2146914907,2147733010,2147123282,3330,-1,8,32869
1376936150,5805,1023.0100097656250000,251.0312957763672000,568.9724121093750000,5.3724780082702640,36.3368911743164060,78,2064,51,52,58,10018,2146962797,2147517778,2147303195,2147518080,2147086162,2146916580,2147728960,2147122112,3408,-1,8,54626
1376939750,5806,1022.9500122070312000,225.8795928955078000,569.2246704101562000,5.3645191192626950,37.6424293518066400,78,2065,51,53,57,10016,2146963538,2147523273,2147304292,2147518253,2147087890,2146910336,2147733805,2147123803,3450,-1,8,8935
1376943350,5802,1019.6400146484375000,233.8542938232422000,569.4602050781250000,5.3570919036865230,37.2179908752441400,78,2069,51,51,57,10009,2146964288,2147522980,2147302747,2147520557,2147087954,2146912749,2147729371,2147122788,3013,0,8,42727
1376946950,5808,1029.6500244140625000,251.5348052978515600,567.8513183593750000,5.4078350067138670,36.2910308837890600,78,2068,52,51,58,10010,2146966747,2147519835,2147304466,2147520804,2147082752,2146911396,2147731904,2147122066,800,0,8,35700
1376950550,5807,1029.1700439453125000,228.2451019287109400,567.5153198242188000,5.4184322357177730,37.4819602966308600,78,2069,51,52,57,10008,2146962806,2147519515,2147306788,2147518052,2147087478,2146915702,2147731456,2147122148,3410,-1,8,31184
1376954150,5808,1032.4699707031250000,234.0724029541015600,566.5211791992188000,5.4497718811035160,37.1523284912109400,78,2072,51,52,57,10006,2146964132,2147520694,2147304676,2147522441,2147086555,2146910555,2147729051,2147122989,115,0,8,16226
1376957750,5804,1033.5300292968750000,222.0984039306640600,565.3192749023438000,5.4876542091369630,37.7784118652343750,78,2071,51,52,58,10005,2146967552,2147518080,2147305965,2147517732,2147085110,2146918162,2147733632,2147125595,3492,0,8,14482
1376961350,5807,1035.2900390625000000,234.3265075683593800,564.2045898437500000,5.5227761268615720,37.0958213806152340,78,2071,51,53,57,10009,2146964123,2147519186,2147303808,2147520429,2147085723,2146911744,2147731035,2147117851,1799,0,8,49723
1376964950,5805,1020.4600219726562000,227.9445953369140600,560.2821044921875000,5.6462821960449220,37.3642616271972660,78,2072,52,50,58,10006,2146965184,2147519826,2147304877,2147519405,2147082587,2146911753,2147730733,2147123501,3505,-1,8,29962
1376968550,5809,1020.3900146484375000,226.8065948486328000,560.2897949218750000,5.6460399627685550,37.4261703491210940,78,2079,51,52,59,10008,2146962084,2147518628,2147303588,2147521362,2147086354,2146914907,2147726601,2147120603,67,0,8,44428
1376972150,5806,1018.9899902343750000,231.2628021240234400,561.0958251953125000,5.6206698417663570,37.2006187438964840,78,2079,50,52,58,10004,2146964352,2147520237,2147303917,2147518912,2147084214,2146911497,2147728832,2147123638,3086,-1,8,2536
1376975750,5807,1025.7399902343750000,243.9792022705078000,559.9564819335938000,5.6565279960632320,36.5203514099121100,78,2079,50,52,58,10003,2146960731,2147517266,2147303232,2147520411,2147084260,2146916964,2147727195,2147120009,121,-1,8,52037
1376979350,5802,1027.1099853515625000,241.0240936279297000,558.5194702148438000,5.7017397880554200,36.6440391540527340,77,2080,50,51,59,10005,2146965330,2147517942,2147304128,2147518994,2147083282,2146917549,2147730066,2147119881,3212,0,8,18055
1376982950,5808,1032.3299560546875000,218.1510009765625000,557.4771728515625000,5.7345218658447270,37.8547515869140600,78,2082,50,52,59,9998,2146964672,2147517211,2147304256,2147518656,2147084708,2146916699,2147726811,2147122358,63,-1,8,64611
1376986550,5805,1029.9000244140625000,206.0968017578125000,557.0853271484375000,5.7468471527099610,38.5498008728027340,78,2083,50,52,57,9995,2146959872,2147522998,2147303204,2147520612,2147085997,2146910912,2147732617,2147122322,177,-1,8,29724
1376990150,5807,1033.4399414062500000,227.4712982177734400,557.0491943359375000,5.7479820251464840,37.3310317993164060,78,2088,51,52,58,9996,2146966829,2147518784,2147296832,2147518107,2147085997,2146910180,2147729426,2147120082,240,-1,8,19366
1376993750,5807,1031.8299560546875000,232.2158050537109400,555.9730224609375000,5.7818179130554200,37.0561981201171900,79,2089,51,52,58,9994,2146962733,2147523803,2147303570,2147517056,2147086025,2146912192,2147729718,2147119853,256,-1,8,33027
1376997350,5804,1039.2900390625000000,225.9140930175781200,555.6694946289062000,5.7913589477539060,37.3903503417968750,79,2091,51,51,58,9994,2146963556,2147519808,2147301988,2147517540,2147086747,2146914221,2147725851,2147121773,3579,-1,8,46979
1377000950,5805,1013.3200073242188000,225.0720062255859400,551.5828857421875000,5.9197478294372560,37.3609695434570300,78,2093,52,52,57,9959,2146963812,2147518262,2147302601,2147515904,2147083620,2146915181,2147727012,2147121965,414,0,8,42848
1377004550,5806,1009.3300170898438000,219.9987945556640600,549.2515258789062000,5.9929327964782715,37.6002616882324200,78,2096,51,51,57,9956,2146961243,2147519926,2147301769,2147518738,2147084370,2146914459,2147727826,2147122642,3435,0,8,60790
1377005455,5805,1008.8499755859375000,212.3766021728515600,549.8848876953125000,5.9730567932128910,38.0478096008300800,78,2094,51,53,58,10420,2146962459,2147522852,2147300544,2147515840,2147085604,2146918656,2147729097,2147120795,581,0,8,60399
